TimeCDT,TemperatureF,Dew PointF,Humidity,Sea Level PressureIn,VisibilityMPH,Wind Direction,Wind SpeedMPH,Gust SpeedMPH,PrecipitationIn,Events,Conditions,WindDirDegrees,DateUTC
12:13 AM,35.6,33.8,93,29.94,10.0,North,17.3,21.9,N/A,Rain,Light Rain,350,2012-10-25 05:13:00
12:33 AM,33.8,33.8,100,29.95,10.0,NNW,15.0,-,N/A,Rain,Light Rain,340,2012-10-25 05:33:00
12:53 AM,33.8,32.0,93,29.94,7.0,NNW,19.6,26.5,0.01,Snow,Light Snow,340,2012-10-25 05:53:00
1:13 AM,33.8,32.0,93,29.94,5.0,North,13.8,19.6,N/A,Snow,Light Snow,350,2012-10-25 06:13:00
1:33 AM,33.8,30.2,87,29.92,10.0,North,17.3,24.2,N/A,,Scattered Clouds,350,2012-10-25 06:33:00
1:53 AM,33.8,30.2,87,29.91,10.0,North,18.4,25.3,N/A,,Clear,350,2012-10-25 06:53:00
2:13 AM,33.8,30.2,87,29.90,10.0,North,12.7,24.2,N/A,,Clear,350,2012-10-25 07:13:00
2:33 AM,33.8,30.2,87,29.90,10.0,North,15.0,24.2,N/A,,Clear,350,2012-10-25 07:33:00
2:53 AM,33.8,30.2,87,29.92,10.0,North,13.8,21.9,N/A,,Clear,350,2012-10-25 07:53:00
3:13 AM,33.8,30.2,87,29.93,10.0,North,17.3,-,N/A,,Clear,350,2012-10-25 08:13:00
3:33 AM,33.8,30.2,87,29.92,10.0,North,13.8,21.9,N/A,,Scattered Clouds,350,2012-10-25 08:33:00
3:53 AM,33.8,30.2,87,29.92,10.0,North,15.0,23.0,N/A,,Scattered Clouds,350,2012-10-25 08:53:00
4:13 AM,33.8,30.2,87,29.92,10.0,North,13.8,19.6,N/A,,Clear,350,2012-10-25 09:13:00
4:33 AM,33.8,30.2,87,29.91,10.0,North,16.1,24.2,N/A,,Clear,350,2012-10-25 09:33:00
4:53 AM,33.8,28.4,81,29.92,10.0,NNW,17.3,24.2,N/A,,Clear,340,2012-10-25 09:53:00
5:13 AM,33.8,28.4,81,29.93,10.0,NNW,16.1,21.9,N/A,,Clear,340,2012-10-25 10:13:00
5:33 AM,33.8,28.4,81,29.93,10.0,NNW,16.1,-,N/A,,Clear,340,2012-10-25 10:33:00
5:53 AM,33.8,28.4,81,29.92,10.0,NNW,18.4,23.0,N/A,,Scattered Clouds,340,2012-10-25 10:53:00
6:13 AM,33.8,28.4,81,29.92,10.0,NNW,18.4,25.3,N/A,,Clear,340,2012-10-25 11:13:00
6:33 AM,33.8,28.4,81,29.92,10.0,NNW,17.3,23.0,N/A,,Clear,340,2012-10-25 11:33:00
7:33 AM,32.0,28.4,87,29.92,10.0,NNW,19.6,25.3,N/A,,Clear,330,2012-10-25 12:33:00
8:13 AM,32.0,28.4,87,29.91,10.0,NNW,19.6,24.2,N/A,,Clear,330,2012-10-25 13:13:00
8:33 AM,32.0,28.4,87,29.91,10.0,NNW,18.4,23.0,N/A,,Clear,340,2012-10-25 13:33:00
8:53 AM,32.0,28.4,87,29.92,10.0,NNW,18.4,25.3,N/A,,Clear,330,2012-10-25 13:53:00
9:14 AM,33.8,28.4,81,29.93,10.0,NNW,17.3,25.3,N/A,,Clear,330,2012-10-25 14:14:00
9:33 AM,33.8,28.4,81,29.94,10.0,NNW,18.4,23.0,N/A,,Clear,330,2012-10-25 14:33:00
9:53 AM,33.8,28.4,81,29.95,10.0,NNW,16.1,21.9,N/A,,Clear,330,2012-10-25 14:53:00
10:33 AM,35.6,28.4,75,29.96,10.0,NNW,18.4,21.9,N/A,,Scattered Clouds,330,2012-10-25 15:33:00
10:53 AM,35.6,26.6,70,29.96,10.0,NNW,21.9,26.5,N/A,,Scattered Clouds,330,2012-10-25 15:53:00
11:13 AM,35.6,28.4,75,29.96,10.0,NNW,19.6,25.3,N/A,,Clear,330,2012-10-25 16:13:00
11:33 AM,35.6,26.6,70,29.96,10.0,NNW,21.9,33.4,N/A,,Scattered Clouds,330,2012-10-25 16:33:00
11:53 AM,35.6,26.6,70,29.96,10.0,NNW,23.0,26.5,N/A,,Mostly Cloudy,330,2012-10-25 16:53:00
12:33 PM,35.6,28.4,75,29.96,10.0,NW,17.3,-,N/A,,Overcast,320,2012-10-25 17:33:00
12:53 PM,35.6,28.4,75,29.97,10.0,NW,18.4,24.2,N/A,,Overcast,320,2012-10-25 17:53:00
1:13 PM,35.6,26.6,70,29.97,10.0,NW,20.7,24.2,N/A,,Overcast,320,2012-10-25 18:13:00
1:33 PM,35.6,26.6,70,29.97,10.0,NW,20.7,27.6,N/A,,Overcast,320,2012-10-25 18:33:00
1:53 PM,35.6,26.6,70,29.98,10.0,WNW,19.6,25.3,N/A,,Overcast,300,2012-10-25 18:53:00
2:13 PM,35.6,26.6,70,29.98,10.0,WNW,20.7,27.6,N/A,,Overcast,300,2012-10-25 19:13:00
2:33 PM,35.6,26.6,70,29.98,10.0,NW,18.4,24.2,N/A,,Overcast,310,2012-10-25 19:33:00
3:13 PM,35.6,26.6,70,29.98,10.0,NW,23.0,27.6,N/A,,Overcast,310,2012-10-25 20:13:00
3:33 PM,35.6,26.6,70,29.98,10.0,NW,21.9,27.6,N/A,,Overcast,310,2012-10-25 20:33:00
3:53 PM,37.4,26.6,65,29.99,10.0,NW,21.9,25.3,N/A,,Overcast,310,2012-10-25 20:53:00
4:13 PM,37.4,26.6,65,29.99,10.0,NW,20.7,26.5,N/A,,Overcast,310,2012-10-25 21:13:00
4:33 PM,37.4,26.6,65,30.00,10.0,NW,20.7,27.6,N/A,,Overcast,310,2012-10-25 21:33:00
4:53 PM,37.4,24.8,60,30.00,10.0,NW,23.0,32.2,N/A,,Overcast,310,2012-10-25 21:53:00
5:33 PM,37.4,24.8,60,30.02,10.0,WNW,21.9,29.9,N/A,,Overcast,300,2012-10-25 22:33:00
5:53 PM,35.6,24.8,65,30.03,10.0,WNW,19.6,26.5,N/A,,Overcast,300,2012-10-25 22:53:00
6:13 PM,35.6,24.8,65,30.04,10.0,WNW,17.3,27.6,N/A,,Overcast,300,2012-10-25 23:13:00
6:33 PM,35.6,24.8,65,30.05,10.0,WNW,20.7,29.9,N/A,,Overcast,300,2012-10-25 23:33:00
6:53 PM,35.6,24.8,65,30.06,10.0,WNW,18.4,-,N/A,,Overcast,300,2012-10-25 23:53:00
7:13 PM,35.6,24.8,65,30.06,10.0,WNW,17.3,-,N/A,,Overcast,290,2012-10-26 00:13:00
7:33 PM,35.6,26.6,70,30.07,10.0,WNW,13.8,-,N/A,,Overcast,290,2012-10-26 00:33:00
8:13 PM,35.6,24.8,65,30.08,10.0,WNW,17.3,-,N/A,,Overcast,300,2012-10-26 01:13:00
8:33 PM,35.6,24.8,65,30.09,10.0,WNW,17.3,21.9,N/A,,Overcast,300,2012-10-26 01:33:00
8:53 PM,35.6,24.8,65,30.09,10.0,WNW,18.4,27.6,N/A,,Overcast,300,2012-10-26 01:53:00
9:13 PM,35.6,24.8,65,30.10,10.0,WNW,17.3,23.0,N/A,,Overcast,290,2012-10-26 02:13:00
9:33 PM,35.6,24.8,65,30.11,10.0,WNW,16.1,24.2,N/A,,Overcast,300,2012-10-26 02:33:00
9:53 PM,35.6,24.8,65,30.11,10.0,WNW,17.3,25.3,N/A,,Overcast,300,2012-10-26 02:53:00
10:53 PM,33.8,24.8,70,30.13,10.0,WNW,16.1,23.0,N/A,,Overcast,300,2012-10-26 03:53:00
11:13 PM,33.8,24.8,70,30.13,10.0,WNW,16.1,24.2,N/A,,Overcast,290,2012-10-26 04:13:00
11:34 PM,33.8,24.8,70,30.14,10.0,WNW,16.1,24.2,N/A,,Overcast,300,2012-10-26 04:34:00
11:53 PM,33.8,24.8,70,30.14,10.0,WNW,17.3,24.2,N/A,,Overcast,290,2012-10-26 04:53:00